User: anonymous   Login
Location: Oshawa
(43.9000°N, 78.8670°W)
Time: 08:07:17
(UTC-04:00)
Language:

Thor Agena Rocket - Orbit

View from above orbital plane
View from above orbital plane
View from above satellite
View from above satellite

Ground track
Ground track

The orbit data is extracted from the following two-line orbital elements,

1   733U 64002A   17172.63407317 +.00000015 +00000-0 +23557-4 0  9996
2   733 099.1253 358.2623 0034180 164.1969 196.0288 14.32275703782943
Epoch (UTC): 21 June 2017 15:13:03
Eccentricity: 0.0034180
inclination: 99.1253°
perigee height: 759 km
apogee height: 808 km
right ascension of ascending node: 358.2623°
argument of perigee: 164.1969°
revolutions per day: 14.32275703
mean anomaly at epoch: 196.0288°
orbit number at epoch: 78294

The dashed part of the orbit path shows where the satellite is in the earth's shadow,  

DLR